Regional Weather Roundup
Issued by NWS

Home | Current Version | Previous Version | Graphics & Text | Print | Product List | Glossary On
Versions: 1 2 3 4 5 6 7 8 9 10 11 12 13 14 15 16 17 18 19 20 21 22 23 24 25 26 27
000
ASUS45 KSLC 162110
RWRUT

UTAH REGIONAL WEATHER ROUNDUP
NATIONAL WEATHER SERVICE SALT LAKE CITY UT
200 PM MST TUE JAN 16 2018

UTZ001>011-023>025-162200-

NORTHERN UTAH

CITY           SKY/WX    TMP DP  RH WIND       PRES   REMARKS
BRIGHAM CITY   SUNNY     44  22  41 CALM      30.30F
DUGWAY         PTSUNNY   42  29  58 W6        30.28F
HILL AFB       SUNNY     44  20  38 E9        30.28F
LOGAN          SUNNY     42  24  49 N5        30.30F
OGDEN          SUNNY     47  19  33 N6        30.28F
SALT LAKE CITY MOSUNNY   50  25  37 N7        30.28F
TOOELE VALLEY  SUNNY     43  28  56 N5        30.29F
WENDOVER       PTSUNNY   40  29  64 SE5       30.29F
HEBER CITY       N/A     37  19  48 CALM      30.27F
WEST JORDAN    SUNNY     47  24  40 S9        30.28F

$$

UTZ011>015-024>027-162200-

CENTRAL/NORTHEAST UTAH

CITY           SKY/WX    TMP DP  RH WIND       PRES   REMARKS
PROVO AIRPORT  SUNNY     46  23  40 CALM      30.29F
MOAB/CANYONLAN SUNNY     43  16  33 VRB6      30.34F
DELTA          SUNNY     45  30  57 CALM      30.27F
PRICE          SUNNY     40  20  44 CALM      30.31F
ROOSEVELT      SUNNY     34   5  29 S5        30.40F WCI  30
VERNAL         SUNNY     34   6  31 SE6       30.37F WCI  29

$$

UTZ013>016-019>022-027-162200-

SOUTHERN UTAH

CITY           SKY/WX    TMP DP  RH WIND       PRES   REMARKS
BRYCE CANYON   MOSUNNY   39  23  52 SE9       30.30F WCI  33
CEDAR CITY     MOSUNNY   47  30  51 VRB3      30.25F
MILFORD        MOSUNNY   45  31  58 S3        30.25F
ST GEORGE      CLEAR     55  35  47 W3        30.23F
HANKSVILLE     SUNNY     45  16  31 E5        30.36F
BLANDING         N/A     40  21  46 S7        30.40F

$$

REGIONAL REPORTS     COLORADO/ARIZONA

CITY           SKY/WX    TMP DP  RH WIND       PRES   REMARKS
CRAIG, CO      SUNNY     24   5  44 CALM      30.36F
GRAND JUNCTION SUNNY     42  16  34 S7        30.34F
RIFLE, CO      SUNNY     37  13  37 CALM      30.34F
MONTROSE, CO   SUNNY     38  15  39 NW6       30.35F WCI  33
CORTEZ, CO     SUNNY     43  22  43 S5        30.32F
COLORADO CITY    N/A     57  27  30 E3        30.27F
PAGE, AZ       MOSUNNY   49  12  22 NE7       30.31F
GRAND CANYON   SUNNY     52  20  28 VRB5G16   30.27F
KINGMAN, AZ    CLOUDY    62  27  26 W3        30.19S
FLAGSTAFF, AZ  MOSUNNY   46  22  38 E6        30.29F

$$

REGIONAL REPORTS    NEVADA/IDAHO/WYOMING

CITY           SKY/WX    TMP DP  RH WIND       PRES   REMARKS
LAS VEGAS, NV  CLOUDY    60  35  39 N3        30.18F
ELY, NY        CLOUDY    50  28  42 CALM      30.27F
ELKO, NV       CLOUDY    41  33  73 E6        30.27F
POCATELLO, ID  SUNNY     44  26  49 NE8       30.28F
BURLEY, ID     CLOUDY    45  29  53 CALM      30.26S
FORT BRIDGER,    N/A     31  10  42 CALM      30.32F
EVANSTON, WY   SUNNY     33  13  43 N3        30.29F
ROCK SPRINGS,  SUNNY     27   8  44 CALM      30.30F

$$




USA.gov is the U.S. government's official web portal to all federal, state and local government web resources and services.